Simultaneous Nadir Overpasses (SNOs) Predictions

Prediction of SNOs between NPP and PACE Satellite Orbit:

Table of predicted SNOs for the next 14.0 days since TLE Epoch: 4/12/2025
Index Date (NPP) Time (NPP) Lat,Lon (NPP) SZA (NPP ) Date (PACE) Time (PACE) Lat,Lon (PACE) SZA (PACE ) Distance(km) Time Diff (sec)
1 04/13/2025 22:09:18 -79.80, -9.24 107.51 04/13/2025 22:09:04 -79.81, -9.37 107.49 2.68 14
2 04/16/2025 02:35:52 -79.93, -77.05 108.08 04/16/2025 02:36:23 -79.92, -77.02 108.10 0.84 31
3 04/16/2025 03:26:32 79.76, 91.87 71.61 04/16/2025 03:25:30 79.75, 91.97 71.62 2.22 62
4 04/18/2025 07:03:48 -81.29,-174.26 104.08 04/18/2025 07:05:01 -81.86,-173.81 103.99 63.54 73
5 04/18/2025 07:53:05 79.86, 24.29 71.01 04/18/2025 07:52:48 79.86, 24.37 71.01 1.53 17
6 04/20/2025 12:19:38 79.96, -43.35 70.45 04/20/2025 12:20:05 79.95, -43.19 70.41 3.23 27
7 04/20/2025 13:10:14 -79.70, 126.48 110.05 04/20/2025 13:09:08 -79.71, 126.37 110.01 2.38 66
8 04/22/2025 16:46:09 80.01,-110.45 69.79 04/22/2025 16:47:20 80.01,-110.41 69.75 0.84 71
9 04/22/2025 17:36:48 -79.84, 58.58 110.55 04/22/2025 17:36:25 -79.83, 58.65 110.55 1.55 23
10 04/24/2025 22:03:21 -79.95, -9.11 111.07 04/24/2025 22:03:41 -79.95, -9.04 111.09 1.47 20



Historial Predications of SNOs between NPP and PACE
